Location: Carrières
(48.9495°N, 2.0407°E)
Time: 18:41:49
(UTC+00:00)

NOSS 2-1 (D) - Pass Details

Date: 28 January 2023
Orbit: 418 x 1759 km, 63.3° (Epoch: 23 March)

Event Time Altitude Azimuth Distance (km) Brightness Sun altitude
Rises 17:09:46 0° 322° (NW) 2,575 7.0 -5.0°
Reaches altitude 10° 17:11:47 10° 331° (NNW) 1,796 6.0 -5.3°
Maximum altitude 17:15:31 38° 41° (NE) 973 4.2 -5.8°
Drops below altitude 10° 17:20:27 10° 110° (ESE) 2,386 6.1 -6.6°
Sets 17:23:30 0° 118° (ESE) 3,559 7.0 -7.1°
